Nampa, ID

5:34 PM MDT on September 28, 2016 (GMT -0600)
Nampa

Weather History for KMAN - June, 2013

Change the Weather History Date:

Wednesday, June 12, 2013

  Actual Average (KBOI) Record (KBOI)
Temperature  
Mean Temperature 66 °F 66 °F  
Max Temperature 78 °F 80 °F 102 °F (1940)
Min Temperature 53 °F 53 °F 34 °F (1993)
Degree Days  
Heating Degree Days 0 2  
Month to date heating degree days 38  
Since 1 June heating degree days 38  
Since 1 July heating degree days 5488  
Cooling Degree Days 0 4  
Month to date cooling degree days 37  
Year to date cooling degree days 81  
Since 1 June cooling degree days 37  
Growing Degree Days 16 (Base 50)    
Moisture  
Dew Point 35 °F    
Average Humidity 34    
Maximum Humidity 51    
Minimum Humidity 16    
Precipitation  
Precipitation 0.00 in 0.03 in 1.91 in (1958)
Month to date precipitation 0.37  
Year to date precipitation 6.61  
Snow  
Snow 0.00 in 0.00 in 0.00 in (2007)
Month to date snowfall 0.0  
Since 1 July snowfall 19.2  
Snow Depth -    
Sea Level Pressure  
Sea Level Pressure 29.94 in    
Wind  
Wind Speed 12 mph (NW)    
Max Wind Speed 17 mph    
Max Gust Speed 24 mph    
Visibility 10 miles    
Events      
T = Trace of Precipitation, MM = Missing Value Source: NWS Daily Summary

Daily Weather History Graph

Daily Weather History Graph

Search for Another Location

Airport or City:

Trip Planner

Search our weather history database for the weather conditions in past years. The results will help you decide how hot, cold, wet, or windy it might be!

Date:

Astronomy

Jun. 12, 2013 Rise Set
Actual Time 6:04 AM MDT 9:27 PM MDT
Civil Twilight 5:28 AM MDT 10:03 PM MDT
Nautical Twilight 4:41 AM MDT 10:50 PM MDT
Astronomical Twilight 3:43 AM MDT 11:49 PM MDT
Moon 9:53 AM MDT (6/12) 11:59 PM MDT (6/12)
Length of Visible Light 16h 35m
Length of Day
15h 23m
Waxing Crescent, 14% of the Moon is Illuminated
Jun 12
Waxing Crescent
Jun 16
First Quarter
Jun 23
Full
Jun 29
Last Quarter
Jul 8
New

Hourly Weather History & Observations

Time (MDT) Temp. Dew Point Humidity Pressure Visibility Wind Dir Wind Speed Gust Speed Precip Events Conditions
12:15 AM 64.4 °F 39.2 °F 40% 29.88 in 10.0 mi West 12.7 mph - N/A   Partly Cloudy
12:35 AM 62.6 °F 37.4 °F 39% 29.89 in 10.0 mi WNW 12.7 mph - N/A   Mostly Cloudy
12:55 AM 62.6 °F 37.4 °F 39% 29.89 in 10.0 mi WNW 13.8 mph 19.6 mph N/A   Scattered Clouds
1:15 AM 60.8 °F 35.6 °F 39% 29.90 in 10.0 mi WNW 15.0 mph - N/A   Mostly Cloudy
1:35 AM 59.0 °F 35.6 °F 42% 29.91 in 10.0 mi WNW 13.8 mph 18.4 mph N/A   Partly Cloudy
1:55 AM 59.0 °F 35.6 °F 42% 29.91 in 10.0 mi WNW 16.1 mph 20.7 mph N/A   Scattered Clouds
2:15 AM 59.0 °F 35.6 °F 42% 29.92 in 10.0 mi WNW 15.0 mph - N/A   Mostly Cloudy
2:35 AM 59.0 °F 35.6 °F 42% 29.92 in 10.0 mi WNW 13.8 mph 19.6 mph N/A   Mostly Cloudy
2:55 AM 57.2 °F 35.6 °F 44% 29.94 in 10.0 mi WNW 12.7 mph - N/A   Mostly Cloudy
3:15 AM 57.2 °F 35.6 °F 44% 29.94 in 10.0 mi WNW 15.0 mph 20.7 mph N/A   Mostly Cloudy
3:35 AM 57.2 °F 33.8 °F 41% 29.94 in 10.0 mi NW 15.0 mph 24.2 mph N/A   Scattered Clouds
3:55 AM 57.2 °F 33.8 °F 41% 29.94 in 10.0 mi NW 16.1 mph 24.2 mph N/A   Scattered Clouds
4:15 AM 57.2 °F 33.8 °F 41% 29.95 in 10.0 mi NW 12.7 mph 23.0 mph N/A   Mostly Cloudy
4:35 AM 55.4 °F 35.6 °F 47% 29.95 in 10.0 mi NW 11.5 mph 23.0 mph N/A   Partly Cloudy
4:55 AM 55.4 °F 35.6 °F 47% 29.96 in 10.0 mi WNW 12.7 mph 18.4 mph N/A   Clear
5:15 AM 55.4 °F 33.8 °F 44% 29.96 in 10.0 mi WNW 9.2 mph 17.3 mph N/A   Clear
5:35 AM 53.6 °F 35.6 °F 51% 29.97 in 10.0 mi WNW 11.5 mph - N/A   Clear
5:55 AM 53.6 °F 33.8 °F 47% 29.97 in 10.0 mi WNW 11.5 mph - N/A   Clear
6:15 AM 53.6 °F 35.6 °F 51% 29.97 in 10.0 mi WNW 9.2 mph - N/A   Clear
6:35 AM 53.6 °F 35.6 °F 51% 29.98 in 10.0 mi WNW 9.2 mph - N/A   Clear
6:55 AM 53.6 °F 33.8 °F 47% 29.98 in 10.0 mi WNW 10.4 mph 16.1 mph N/A   Clear
7:15 AM 53.6 °F 33.8 °F 47% 29.99 in 10.0 mi WNW 9.2 mph - N/A   Clear
7:35 AM 55.4 °F 33.8 °F 44% 29.99 in 10.0 mi NW 10.4 mph - N/A   Clear
7:55 AM 55.4 °F 33.8 °F 44% 30.00 in 10.0 mi NW 11.5 mph - N/A   Clear
8:15 AM 57.2 °F 35.6 °F 44% 30.00 in 10.0 mi NW 8.1 mph - N/A   Clear
8:35 AM 57.2 °F 35.6 °F 44% 30.00 in 10.0 mi NW 11.5 mph 17.3 mph N/A   Clear
8:55 AM 57.2 °F 35.6 °F 44% 30.01 in 10.0 mi NW 11.5 mph - N/A   Clear
9:15 AM 59.0 °F 37.4 °F 45% 30.01 in 10.0 mi NNW 10.4 mph - N/A   Clear
9:35 AM 60.8 °F 35.6 °F 39% 30.01 in 10.0 mi NNW 10.4 mph - N/A   Clear
9:55 AM 60.8 °F 35.6 °F 39% 30.01 in 10.0 mi NW 9.2 mph - N/A   Clear
10:15 AM 62.6 °F 35.6 °F 37% 30.01 in 10.0 mi NNW 6.9 mph - N/A   Clear
10:35 AM 62.6 °F 35.6 °F 37% 30.01 in 10.0 mi NW 8.1 mph - N/A   Clear
10:55 AM 64.4 °F 37.4 °F 37% 30.01 in 10.0 mi NW 6.9 mph - N/A   Clear
11:15 AM 64.4 °F 37.4 °F 37% 30.00 in 10.0 mi NNW 4.6 mph - N/A   Clear
11:35 AM 66.2 °F 37.4 °F 35% 30.00 in 10.0 mi WNW 9.2 mph - N/A   Clear
11:55 AM 66.2 °F 37.4 °F 35% 30.00 in 10.0 mi WNW 9.2 mph - N/A   Clear
12:15 PM 68.0 °F 35.6 °F 30% 29.99 in 10.0 mi NW 8.1 mph - N/A   Clear
12:35 PM 68.0 °F 37.4 °F 33% 29.98 in 10.0 mi NW 9.2 mph - N/A   Clear
12:55 PM 68.0 °F 35.6 °F 30% 29.98 in 10.0 mi North 6.9 mph - N/A   Clear
1:15 PM 71.6 °F 37.4 °F 29% 29.97 in 10.0 mi North 8.1 mph - N/A   Clear
1:35 PM 71.6 °F 37.4 °F 29% 29.96 in 10.0 mi NW 9.2 mph - N/A   Clear
1:55 PM 71.6 °F 37.4 °F 29% 29.95 in 10.0 mi NNW 11.5 mph - N/A   Clear
2:15 PM 73.4 °F 37.4 °F 27% 29.95 in 10.0 mi NW 8.1 mph - N/A   Clear
2:35 PM 73.4 °F 37.4 °F 27% 29.94 in 10.0 mi NNW 11.5 mph - N/A   Clear
2:55 PM 75.2 °F 37.4 °F 25% 29.93 in 10.0 mi NNW 9.2 mph - N/A   Clear
3:15 PM 75.2 °F 35.6 °F 24% 29.92 in 10.0 mi NNW 9.2 mph - N/A   Clear
3:35 PM 75.2 °F 33.8 °F 22% 29.92 in 10.0 mi North 8.1 mph - N/A   Clear
3:55 PM 77.0 °F 33.8 °F 21% 29.91 in 10.0 mi NW 9.2 mph - N/A   Clear
4:15 PM 77.0 °F 32.0 °F 19% 29.90 in 10.0 mi NNW 9.2 mph - N/A   Clear
4:35 PM 77.0 °F 32.0 °F 19% 29.90 in 10.0 mi NNE 8.1 mph - N/A   Clear
4:55 PM 77.0 °F 32.0 °F 19% 29.88 in 10.0 mi NNW 9.2 mph - N/A   Clear
5:15 PM 77.0 °F 32.0 °F 19% 29.87 in 10.0 mi NW 10.4 mph - N/A   Clear
5:35 PM 78.8 °F 32.0 °F 18% 29.87 in 10.0 mi North 10.4 mph 18.4 mph N/A   Clear
5:55 PM 78.8 °F 30.2 °F 17% 29.86 in 10.0 mi NNW 10.4 mph 19.6 mph N/A   Clear
6:15 PM 78.8 °F 28.4 °F 16% 29.86 in 10.0 mi North 8.1 mph - N/A   Clear
6:35 PM 77.0 °F 28.4 °F 17% 29.85 in 10.0 mi NNW 10.4 mph - N/A   Clear
6:55 PM 77.0 °F 30.2 °F 18% 29.85 in 10.0 mi NNW 10.4 mph - N/A   Clear
7:15 PM 77.0 °F 28.4 °F 17% 29.85 in 10.0 mi North 6.9 mph - N/A   Clear
7:35 PM 77.0 °F 30.2 °F 18% 29.85 in 10.0 mi NW 6.9 mph - N/A   Clear
7:55 PM 75.2 °F 30.2 °F 19% 29.87 in 10.0 mi NW 5.8 mph - N/A   Clear
8:15 PM 75.2 °F 30.2 °F 19% 29.87 in 10.0 mi West 9.2 mph - N/A   Scattered Clouds
8:35 PM 75.2 °F 32.0 °F 21% 29.88 in 10.0 mi WNW 12.7 mph - N/A   Mostly Cloudy
8:55 PM 73.4 °F 35.6 °F 25% 29.87 in 10.0 mi NW 12.7 mph - N/A   Scattered Clouds
9:15 PM 71.6 °F 35.6 °F 27% 29.87 in 10.0 mi NNW 10.4 mph - N/A   Partly Cloudy
9:35 PM 68.0 °F 35.6 °F 30% 29.89 in 10.0 mi NNW 10.4 mph - N/A   Clear
9:55 PM 68.0 °F 35.6 °F 30% 29.90 in 10.0 mi NNW 12.7 mph 16.1 mph N/A   Partly Cloudy
10:15 PM 66.2 °F 35.6 °F 32% 29.90 in 10.0 mi NNW 12.7 mph 18.4 mph N/A   Partly Cloudy
10:35 PM 66.2 °F 35.6 °F 32% 29.91 in 10.0 mi NNW 16.1 mph 24.2 mph N/A   Mostly Cloudy
10:55 PM 66.2 °F 35.6 °F 32% 29.91 in 10.0 mi NNW 17.3 mph 24.2 mph N/A   Partly Cloudy
11:15 PM 64.4 °F 35.6 °F 34% 29.92 in 10.0 mi NNW 13.8 mph 23.0 mph N/A   Clear
11:35 PM 64.4 °F 35.6 °F 34% 29.93 in 10.0 mi NW 12.7 mph 20.7 mph N/A   Scattered Clouds
11:55 PM 64.4 °F 32.0 °F 30% 29.94 in 10.0 mi NW 16.1 mph 23.0 mph N/A   Overcast